Terminal Aerodrome Forecast
Issued by NWS

Home | Current Version | Previous Version | Graphics & Text | Print | Product List | Glossary Off
Versions: 1 2 3 4 5 6 7 8 9 10 11 12 13 14 15 16 17 18 19 20 21 22 23 24 25 26 27 28 29 30 31 32 33 34 35

000
FTUS43 KDDC 132325
TAFHYS
TAF
KHYS 132325Z 1400/1424 15006KT P6SM SCT050
     FM141700 16015G25KT P6SM SCT150=

USA.gov is the U.S. government's official web portal to all federal, state and local government web resources and services.